Lufkin, TX

6:06 AM CST on January 16, 2018 (GMT -0600)
Angelina County

Weather History for KLFK - March, 2011

Change the Weather History Date:

Tuesday, March 8, 2011

  Actual Average Record
Temperature  
Mean Temperature 65 °F 58 °F  
Max Temperature 73 °F 69 °F 90 °F (1911)
Min Temperature 56 °F 46 °F 24 °F (1957)
Degree Days  
Heating Degree Days 0 8  
Month to date heating degree days 56 73  
Since 1 July heating degree days 1724 1707  
Cooling Degree Days 0 1  
Month to date cooling degree days 3 8  
Year to date cooling degree days 46 27  
Growing Degree Days 15 (Base 50)    
Moisture  
Dew Point 63 °F    
Average Humidity 86    
Maximum Humidity 93    
Minimum Humidity 79    
Precipitation  
Precipitation 0.22 in 0.12 in 3.03 in (2012)
Month to date precipitation 0.25 1.05  
Year to date precipitation 8.15 9.10  
Snow  
Snow 0.00 in - - ()
Month to date snowfall 0.0  
Since 1 July snowfall T  
Snow Depth 0.00 in    
Sea Level Pressure  
Sea Level Pressure 29.79 in    
Wind  
Wind Speed 8 mph (SSE)    
Max Wind Speed 18 mph    
Max Gust Speed 25 mph    
Visibility 7 miles    
Events Rain    
T = Trace of Precipitation, MM = Missing Value Source: NWS Daily Summary

Daily Weather History Graph

Daily Weather History Graph

Search for Another Location

Airport or City:

Trip Planner

Search our weather history database for the weather conditions in past years. The results will help you decide how hot, cold, wet, or windy it might be!

Date:

Astronomy

Mar. 08, 2011 Rise Set
Actual Time 6:37 AM CST 6:22 PM CST
Civil Twilight 6:13 AM CST 6:46 PM CST
Nautical Twilight 5:45 AM CST 7:14 PM CST
Astronomical Twilight 5:17 AM CST 7:42 PM CST
Moon 8:16 AM CST (3/8) 10:00 PM CST (3/8)
Length of Visible Light 12h 32m
Length of Day
11h 44m
Waxing Crescent, 13% of the Moon is Illuminated
Mar 8
Waxing Crescent
Mar 12
First Quarter
Mar 19
Full
Mar 26
Last Quarter
Apr 3
New

Hourly Weather History & Observations

Time (CST) Temp. Dew Point Humidity Pressure Visibility Wind Dir Wind Speed Gust Speed Precip Events Conditions
12:53 AM 57.0 °F 54.0 °F 89% 29.83 in 6.0 mi SE 10.4 mph - 0.00 in Rain Light Rain
1:01 AM 57.2 °F 55.4 °F 94% 29.84 in 5.0 mi SE 10.4 mph - 0.00 in Rain Light Rain
1:24 AM 57.2 °F 55.4 °F 94% 29.84 in 4.0 mi ESE 10.4 mph - 0.00 in Rain Light Rain
1:53 AM 57.0 °F 55.0 °F 93% 29.82 in 7.0 mi SE 11.5 mph - 0.00 in   Overcast
2:00 AM 57.2 °F 55.4 °F 94% 29.82 in 7.0 mi SE 11.5 mph - N/A   Overcast
2:53 AM 57.9 °F 55.9 °F 93% 29.79 in 7.0 mi SE 11.5 mph - N/A   Overcast
3:53 AM 59.0 °F 57.0 °F 93% 29.76 in 10.0 mi SE 11.5 mph - 0.00 in   Overcast
4:53 AM 60.1 °F 59.0 °F 96% 29.77 in 7.0 mi SE 9.2 mph - 0.00 in Rain Light Rain
5:53 AM 61.0 °F 60.1 °F 97% 29.81 in 6.0 mi WNW 3.5 mph - 0.01 in   Overcast
6:26 AM 60.8 °F 60.8 °F 100% 29.83 in 2.5 mi NNW 3.5 mph - 0.06 in Rain Rain
6:34 AM 60.8 °F 60.8 °F 100% 29.83 in 2.0 mi NNE 3.5 mph - 0.08 in Rain Heavy Rain
6:48 AM 60.8 °F 59.0 °F 94% 29.83 in 3.0 mi ENE 5.8 mph - 0.11 in Rain Rain
6:53 AM 61.0 °F 59.0 °F 93% 29.83 in 3.0 mi ENE 6.9 mph - 0.12 in Rain Light Rain
7:20 AM 60.8 °F 59.0 °F 94% 29.84 in 3.0 mi East 4.6 mph - 0.01 in Rain Light Rain
7:53 AM 61.0 °F 59.0 °F 93% 29.83 in 5.0 mi ESE 5.8 mph - 0.01 in   Overcast
8:53 AM 63.0 °F 61.0 °F 93% 29.84 in 5.0 mi East 5.8 mph - 0.00 in Rain Light Rain
9:53 AM 64.0 °F 63.0 °F 96% 29.84 in 5.0 mi ESE 8.1 mph - 0.03 in   Overcast
10:53 AM 66.9 °F 64.9 °F 93% 29.83 in 9.0 mi SSE 8.1 mph - 0.00 in   Overcast
11:49 AM 69.8 °F 66.2 °F 88% 29.81 in 10.0 mi SSE 12.7 mph - N/A   Mostly Cloudy
11:53 AM 70.0 °F 66.9 °F 90% 29.81 in 10.0 mi SSE 13.8 mph 19.6 mph N/A   Mostly Cloudy
11:59 AM 71.6 °F 66.2 °F 83% 29.81 in 10.0 mi SSE 12.7 mph - N/A   Mostly Cloudy
12:06 PM 71.6 °F 66.2 °F 83% 29.81 in 10.0 mi South 8.1 mph 18.4 mph N/A   Mostly Cloudy
12:35 PM 73.4 °F 66.2 °F 78% 29.79 in 10.0 mi South 10.4 mph 20.7 mph N/A   Mostly Cloudy
12:53 PM 72.0 °F 66.0 °F 81% 29.77 in 10.0 mi South 12.7 mph 25.3 mph N/A   Mostly Cloudy
1:53 PM 72.0 °F 66.0 °F 81% 29.75 in 10.0 mi South 11.5 mph 20.7 mph N/A   Overcast
2:53 PM 71.1 °F 66.9 °F 87% 29.74 in 10.0 mi South 6.9 mph - 0.00 in Rain Light Rain
3:26 PM 71.6 °F 66.2 °F 83% 29.74 in 10.0 mi South 9.2 mph - N/A   Scattered Clouds
3:53 PM 72.0 °F 68.0 °F 87% 29.73 in 10.0 mi South 8.1 mph - 0.05 in   Scattered Clouds
4:53 PM 73.0 °F 66.9 °F 81% 29.73 in 10.0 mi South 9.2 mph - N/A   Mostly Cloudy
5:53 PM 72.0 °F 66.0 °F 81% 29.73 in 10.0 mi South 9.2 mph - N/A   Clear
6:53 PM 70.0 °F 64.9 °F 84% 29.75 in 10.0 mi SSW 3.5 mph - N/A   Clear
7:53 PM 68.0 °F 64.9 °F 90% 29.74 in 9.0 mi South 3.5 mph - N/A   Clear
8:53 PM 68.0 °F 64.9 °F 90% 29.76 in 6.0 mi SSE 8.1 mph - N/A   Scattered Clouds
9:12 PM 68.0 °F 66.2 °F 94% 29.77 in 7.0 mi SSE 9.2 mph - N/A   Scattered Clouds
9:53 PM 68.0 °F 66.2 °F 94% 29.78 in 6.0 mi South 6.9 mph - N/A   Partly Cloudy
10:46 PM 66.2 °F 66.2 °F 100% 29.80 in 5.0 mi WSW 3.5 mph - N/A   Mostly Cloudy
10:53 PM 68.0 °F 66.0 °F 93% 29.79 in 5.0 mi WSW 3.5 mph - N/A   Overcast
11:53 PM 69.1 °F 66.9 °F 93% 29.81 in 5.0 mi West 3.5 mph - N/A   Overcast